World > North America > United States > North Dakota

Absaraka, North Dakota Regional Weather

Lat: 46.98N, Lon: 97.39W
Wx Zone: NDZ039
Warning NWS WEATHER ALERT - (More Info. Click Here) Warning
Feedback

Absaraka, ND Regional Weather

Expires:201910240500;;179603
ASUS43 KBIS 240402
RWRND 

NORTH DAKOTA REGIONAL WEATHER ROUNDUP
NATIONAL WEATHER SERVICE BISMARCK ND
1100 PM CDT WED OCT 23 2019

NOTE: "FAIR" INDICATES FEW OR NO CLOUDS BELOW 12,000 FEET WITH NO
SIGNIFICANT WEATHER AND/OR OBSTRUCTIONS TO VISIBILITY.



NDZ022-023-025-028>030-036>039-047>053-240500-
SOUTHEAST NORTH DAKOTA
  
CITY           SKY/WX    TMP DP  RH WIND       PRES   REMARKS
FARGO          CLEAR     32  25  75 NW5       30.20R                  
JAMESTOWN      CLOUDY    36  27  69 W8        30.19R                  
$$ 

  

SKY/WX - Weather  TMP - Temperature  DP - Dew Point  RH - Relative Humidity
WIND - Wind Direction/Speed PRES - Barometric Pressure VSB - Visibility
WCI - Wind Chill Index E13G22 Wind - East Wind 13 mph/Gusts of 22 mph